sat.trackr.live / text

‹ back to catalog

ONEWEB-0056

NORAD 45159 · 2020-008AE

PAYLOAD ACTIVE UNKNOWN

§ Identity

Operator
Country
UK
Launch date
2020-02-06
Launch site
TYMSC
Launch vehicle
Mass (kg)
RCS (m²)

Purposes: comms

External: N2YO · Heavens-Above · Gunter

§ Orbital elements

Epoch: 2026-05-25T03:31:50.767104Z

Period
109.89 min
Inclination
87.8863°
Eccentricity
0.0001706
Mean motion
13.10370815 rev/d
Perigee alt
1,220.4 km
Apogee alt
1,223.0 km
Semi-major
7,599.9 km
B*
8.2056e-4
RAAN
40.8461°
Arg perigee
88.3012°
Mean anomaly
271.8311°
Rev number
30,516

§ Raw data

ONEWEB-00561 45159U 20008AE  26145.14711536  .00000299  00000+0  82056-3 0  99932 45159  87.8863  40.8461 0001706  88.3012 271.8311 13.10370815305162

JSON: /api/v1/satellites/45159 · /tle

For live sub-satellite position, see the globe view (requires WebGL).

§ Visibility from observer

Set your observer location to see the next 7 days of passes ≥ 10°. The values pass through the URL so the page stays shareable.

No JS? Fill the form by hand. The geolocation button needs JavaScript.